Weather in Nelson

New Zealand     41°17′20″S   173°14′49″E
temp.,
°C
wind,
m/s
gust,
m/s
humid.,
%
clouds,
%
prec.,
mm/h
press.,
hPa
HPBL,
m
17 april, sat
sat1700:00+12sw3588100 0.0 1004137
03:00+10sw47851 0.0 1005217
06:00+9ssw35847 0.1 1007202
09:00+11s227865 0.4 1010237
12:00+13ne117021 1.2 1011481
15:00+14nne436610 0.4 1010579
18:00+12nne347638 0.5 1012507
21:00+12nnw238137 0.6 1013309
18 april, sun
sun1800:00+10sw338714 0.9 1014144
03:00+8sw488471 0.0 1012235
06:00+8sw51084100 0.0 1013288
09:00+11sw59739 0.0 1013415
12:00+16wsw48490 0.0 10121217
15:00+16wnw36540 0.0 1012756
18:00+14wsw37681 0.0 1013261
21:00+11sw48775 0.0 1014195
19 april, mon
mon1900:00+10sw598383 0.0 1014242
03:00+10sw5108156 0.0 1014316
06:00+10ssw598284 0.0 1014261
09:00+13sw49705 0.0 1016340
12:00+17w355724 0.0 1016691
15:00+16n436491 0.0 1015350
18:00+14ese2177100 0.0 101566
21:00+12s2381100 0.0 1016107
20 april, tue
tue2000:00+11ssw238026 0.0 1016116
03:00+11ssw228358 0.0 1016110
06:00+10ssw228398 0.0 1017120
09:00+12s1175100 0.0 1017184
12:00+14nne2374100 0.0 1016444
15:00+15nne2375100 0.0 1013376
18:00+13nnw1186100 0.1 1011131
21:00+13s2290100 0.5 1009119
21 april, wed
wed2100:00+12ssw1191100 2.3 1007115
03:00+13s2289100 0.4 1003136
06:00+13ssw1191100 1.4 1002119
09:00+14sw2288100 0.1 1001125
12:00+14nne0190100 1.4 1000178
15:00+15n1185100 0.3 998195
18:00+14wsw1194100 1.4 99982
21:00+13wsw129011 0.3 1002183